Overview Statistics Trail Chart Weather Telemetry Raw packets
 

This is the latest recevied weather packets stored in our database for station/object NB9X. If no packets are shown the sender has not sent any weather packets the latest 10 day(s).

<< 15 16 17 18 19 20 21 >>
Time Temp. Humidity Pressure Rain* Wind** Luminosity Snow
1788546859 33.33° C 100% 1013.6 hPa 0.25 mm - - -
1788546559 33.33° C 100% 1013.7 hPa 0.25 mm - - -
1788546259 32.78° C 100% 1013.8 hPa 0.25 mm - - -
1788545959 31.11° C 100% 1014 hPa 0.25 mm - - -
1788545659 30° C 100% 1014 hPa 0 mm - - -
1788545359 30.56° C 100% 1013.9 hPa 0 mm - - -
1788545059 31.11° C 100% 1014.1 hPa 0 mm - - -
1788544759 32.22° C 100% 1014.1 hPa 0 mm - - -
1788544459 32.78° C 100% 1014.2 hPa 0 mm - - -
1788544159 35° C 100% 1014.1 hPa 0 mm - - -
1788543859 33.89° C 100% 1013.9 hPa 0 mm - - -
1788543560 33.89° C 100% 1014 hPa 0 mm - - -
1788543259 35° C 100% 1014 hPa 0 mm - - -
1788542960 34.44° C 100% 1014.1 hPa 0 mm - - -
1788542660 34.44° C 100% 1014.4 hPa 0 mm - - -
1788542360 34.44° C 100% 1014.5 hPa 0 mm - - -
1788542060 34.44° C 100% 1014.5 hPa 0 mm - - -
1788541759 34.44° C 100% 1014.5 hPa 0 mm - - -
1788541460 33.33° C 100% 1014.5 hPa 0 mm - - -
1788541160 34.44° C 100% 1014.5 hPa 0 mm - - -
1788540860 33.89° C 100% 1014.5 hPa 0 mm - - -
1788540560 34.44° C 100% 1014.6 hPa 0 mm - - -
1788540260 33.33° C 100% 1014.5 hPa 0 mm - - -
1788539960 33.33° C 100% 1014.6 hPa 0 mm - - -
1788539660 33.33° C 100% 1014.6 hPa 0 mm - - -

* Rain latest hour (hover to see other rain measurements)
** Current wind speed in m/s (hover to see current wind gust speed)